Location: Unspecified
(0.0000°N, 0.0000°E)
Time: 08:57:16
(UTC+00:00)

Tiangong 2 - Pass Details

Date: 21 May 2017
Orbit: 389 x 395 km, 42.8° (Epoch: 17 August)

Event Time Altitude Azimuth Distance (km) Brightness Sun altitude
Rises 19:10:08 0° 260° (W) 2,272 6.0 -17.2°
Reaches altitude 10° 19:13:33 10° 299° (WNW) 1,411 5.2 -18.0°
Maximum altitude 19:14:27 11° 316° (NW) 1,358 4.8 -18.2°
Drops below altitude 10° 19:15:21 10° 332° (NNW) 1,408 4.6 -18.4°
Sets 19:18:45 0° 11° (NNE) 2,256 5.1 -19.2°
